Hourly Data Report for January 12, 2004

SHERBROOKE A
QUEBEC

45°26'00.000" N
71°41'00.000" W
241.40 m
7028124
71610
YSC

Download Data

Hourly Data (January 2004)
Hourly Data Report for January 12, 2004
TIME
LST
Temp Definition
°C
Dew Point Definition
°C
Rel Hum Definition
%
Precip. Amount Definition
mm

Wind Dir Definition
10's deg

Wind Spd Definition
km/h
Visibility Definition
km
Stn Press Definition
kPa
Hmdx Definition


Wind Chill Definition


Weather Definition


00:00 -11.8 -13.9 84     0 9.7 98.27     Snow
01:00 -11.7 -13.5 86     0 4.8 98.26     Snow
02:00 -11.5 -13.4 86     0 4.8 98.24     Snow
03:00 -11.5 -13.3 86     0 3.1 98.19     Snow
04:00 -11.2 -13.0 87   6 4 2.3 98.15   -14 Snow
05:00 -11.2 -13.1 86     0 3.1 98.13     Snow
06:00 -11.4 -13.2 86   7 4 2.7 98.10   -14 Snow
07:00 -11.5 -13.3 86   4 4 5.6 98.12   -14 Snow
08:00 -11.6 -13.6 85   11 4 4.8 98.14   -14 Snow
09:00 -10.0 -12.4 83     0 4.8 98.19     Snow
10:00 -8.4 -11.1 81     0 6.4 98.21     Snow
11:00 -7.9 -10.9 79   28 4 12.9 98.17   -10 Snow
12:00 -7.5 -10.7 78   26 6 16.1 98.11   -11 Snow Showers
13:00 -7.1 -10.7 75   27 7 6.4 98.06   -11 Snow Showers
14:00 -8.0 -11.5 76   27 11 3.2 98.10   -13 Snow Showers
15:00 -10.1 -12.9 80   29 15 19.3 98.13   -17 Snow Showers
16:00 -10.9 -13.8 79   27 13 19.3 98.18   -17 Snow Showers
17:00 -12.5 -15.3 80   28 17 8.0 98.26   -20 Snow
18:00 -13.5 -16.1 81   28 15 15.0 98.32   -21  
19:00 -14.2 -16.6 82   28 17 15.0 98.37   -22  
20:00 -16.9 -19.5 80   28 11 15.0 98.44   -24  
21:00 -18.4 -22.2 72   25 4 15.0 98.49   -22  
22:00 -19.8 -22.9 76   26 7 15.0 98.52   -25  
23:00 -22.9 -26.2 74     0 12.9 98.50      

Notes on Data Quality.

Legend

  • E = Estimated
  • M = Missing
  • NA = Not Available*
  • [empty] = Indicates an unobserved value
Date modified: